TimeMST,TemperatureF,Dew PointF,Humidity,Sea Level PressureIn,VisibilityMPH,Wind Direction,Wind SpeedMPH,Gust SpeedMPH,PrecipitationIn,Events,Conditions,WindDirDegrees,DateUTC
12:52 AM,34.0,16.0,48,30.17,10.0,WNW,11.5,-,N/A,,Clear,300,2012-12-04 07:52:00
1:52 AM,30.0,16.0,56,30.20,10.0,WNW,9.2,-,N/A,,Clear,300,2012-12-04 08:52:00
2:52 AM,32.0,16.0,52,30.20,10.0,WNW,11.5,-,N/A,,Clear,300,2012-12-04 09:52:00
3:52 AM,32.0,16.0,52,30.22,10.0,WNW,10.4,-,N/A,,Clear,300,2012-12-04 10:52:00
4:52 AM,30.0,16.0,56,30.27,10.0,WNW,8.1,-,N/A,,Clear,300,2012-12-04 11:52:00
5:52 AM,28.9,16.0,58,30.30,10.0,NW,9.2,-,N/A,,Clear,310,2012-12-04 12:52:00
6:52 AM,28.9,16.0,58,30.29,10.0,NW,8.1,-,N/A,,Clear,310,2012-12-04 13:52:00
7:52 AM,32.0,17.1,54,30.31,10.0,WNW,6.9,-,N/A,,Clear,290,2012-12-04 14:52:00
8:52 AM,42.1,18.0,38,30.28,10.0,WNW,5.8,-,N/A,,Clear,300,2012-12-04 15:52:00
9:52 AM,46.0,19.0,34,30.27,10.0,South,6.9,-,N/A,,Clear,180,2012-12-04 16:52:00
10:52 AM,50.0,19.0,29,30.22,10.0,SE,6.9,-,N/A,,Clear,130,2012-12-04 17:52:00
11:52 AM,51.1,19.0,28,30.17,10.0,SSE,17.3,-,N/A,,Clear,150,2012-12-04 18:52:00
12:52 PM,50.0,19.0,29,30.14,10.0,SSE,19.6,-,N/A,,Clear,160,2012-12-04 19:52:00
1:52 PM,52.0,16.0,24,30.09,10.0,South,20.7,25.3,N/A,,Clear,180,2012-12-04 20:52:00
2:52 PM,48.9,18.0,29,30.09,10.0,South,18.4,-,N/A,,Clear,180,2012-12-04 21:52:00
3:52 PM,44.6,17.6,34,30.04,10.0,SSE,11.5,-,N/A,,Clear,160,2012-12-04 22:52:00
4:52 PM,39.0,19.0,45,30.11,10.0,SE,8.1,-,N/A,,Clear,140,2012-12-04 23:52:00
5:52 PM,37.9,19.0,47,30.12,10.0,ESE,5.8,-,N/A,,Clear,120,2012-12-05 00:52:00
6:52 PM,34.0,18.0,52,30.12,10.0,Calm,Calm,-,N/A,,Clear,0,2012-12-05 01:52:00
7:52 PM,32.0,18.0,56,30.13,10.0,Calm,Calm,-,N/A,,Clear,0,2012-12-05 02:52:00
8:52 PM,28.9,18.0,64,30.10,10.0,Calm,Calm,-,N/A,,Clear,0,2012-12-05 03:52:00
9:52 PM,30.0,19.0,64,30.11,10.0,Calm,Calm,-,N/A,,Clear,0,2012-12-05 04:52:00
10:52 PM,30.9,19.0,61,30.07,10.0,Calm,Calm,-,N/A,,Clear,0,2012-12-05 05:52:00
11:52 PM,30.9,19.0,61,30.06,10.0,Calm,Calm,-,N/A,,Clear,0,2012-12-05 06:52:00